Location: Beaucourt-en-Santerre
(49.7918°N, 2.5851°E)
Time: 00:35:15
(UTC+00:00)

Daily predictions for brighter satellites

Satellite Brightness Start Highest point End
(mag) Time Altitude Azimuth Time Altitude Azimuth Time Altitude Azimuth
Cosmos 1943 Rocket 4.4 03:12:50 20° NE 03:12:50 20° NE 03:14:45 10° NE
CENTAUR R/B 3.1 03:44:24 55° ENE 03:44:24 55° ENE 03:50:02 10° NE
Cosmos 2278 Rocket 4.4 03:51:48 15° NNE 03:51:48 15° NNE 03:52:45 10° NNE
NOSS 3-2 (A) 4.0 04:04:16 51° NNE 04:04:16 51° NNE 04:09:19 10° NE
NOSS 3-2 (C) 3.5 04:12:49 73° ENE 04:12:49 73° ENE 04:18:50 10° NE
Meteor 2-3 Rocket 4.4 04:20:25 45° NNE 04:20:25 45° NNE 04:24:21 10° NNE
BREEZE-M DEB (TANK) 4.1 04:21:03 40° S 04:21:03 40° S 04:29:15 10° SE
Envisat 4.4 04:18:41 10° NNE 04:23:25 37° E 04:28:07 10° SSE
Cosmos 968 Rocket 4.2 04:27:18 43° NNE 04:27:18 43° NNE 04:30:45 10° NNE
Cosmos 2297 Rocket 4.4 04:25:42 12° N 04:28:36 17° NNE 04:32:17 10° ENE
Cosmos 2098 Rocket 3.8 04:32:19 29° SSE 04:34:23 58° E 04:39:40 10° NNE
Cosmos 2369 Rocket 2.2 04:34:16 56° S 04:35:28 77° ESE 04:41:06 10° NNE
Cosmos 2344 3.5 04:34:44 57° WNW 04:35:41 61° NW 04:43:47 10° NE
SL-19 R/B 4.1 04:34:33 10° SSE 04:40:07 88° WSW 04:41:27 55° NNW
USA 238 DEB 3.5 04:39:34 64° WNW 04:40:16 68° NW 04:47:14 10° NE
USA 238 3.5 04:39:39 64° W 04:40:22 69° NW 04:47:20 10° NE
Cosmos 2279 Rocket 4.1 04:34:59 10° N 04:41:13 75° E 04:47:24 10° SSE
Cosmos 1656 Rocket 3.9 04:37:55 23° S 04:41:15 64° ESE 04:46:39 10° NNE
COSMO-SKYMED 1 2.9 04:38:19 10° SSE 04:42:37 65° ENE 04:42:51 63° NE
H-2A R/B 4.2 04:40:00 10° NNE 04:46:53 13° S 04:47:17 10° S
Meteor 1-31 Rocket 4.3 04:40:31 10° NNE 04:44:09 37° E 04:47:48 10° SSE
USA 215 3.2 04:38:17 10° ESE 04:44:49 80° NNE 04:46:50 48° NW
Cosmos 1943 Rocket 2.8 04:54:24 38° NNW 04:54:24 38° NNW 04:58:39 10° NNE
CZ-2C R/B 2.6 04:48:46 10° SSE 04:54:14 86° ENE 04:57:38 24° NNW
Kosmos-917 4.2 04:57:03 57° NNE 04:57:03 57° NNE 05:01:36 10° NE
Cosmos 1634 Rocket 4.0 04:58:14 39° NW 05:00:18 55° W 05:06:21 10° SSW
Gblst 52 Del rocket 4.4 04:59:59 51° W 05:01:40 79° N 05:08:34 10° E
Cosmos 2227 Rocket 4.2 05:00:33 10° N 05:04:44 21° NE 05:08:54 10° E
Cosmos 1862 3.6 05:07:19 53° N 05:07:19 53° N 05:10:26 10° N
SKYMED 3 4.4 05:02:24 10° S 05:06:44 75° WSW 05:07:15 65° NW
Cosmos 1515 Rocket 3.8 05:06:34 19° N 05:09:42 66° ENE 05:14:00 10° SSE
Landsat 5 3.5 05:05:59 10° SSE 05:10:30 88° WSW 05:12:33 32° NNW
ADEOS 4.4 05:07:25 10° NNE 05:12:32 51° E 05:17:36 10° S
SJ 16-02 3.1 05:08:57 10° SSE 05:12:53 34° ESE 05:16:51 10° NE
Tsikada Rocket 4.4 05:16:30 38° WNW 05:16:52 38° WNW 05:22:44 10° N
BREEZE-M DEB (TANK) 2.7 05:16:52 64° WSW 05:17:22 87° S 05:24:29 10° E
Meteor 2-8 Rocket 4.3 05:17:07 10° NNW 05:23:15 70° W 05:29:18 10° S
COSMOS 2487 3.6 05:23:41 23° N 05:25:21 39° ENE 05:28:31 10° SE
CZ-4C R/B 2.5 05:23:24 10° S 05:26:27 77° WSW 05:26:27 77° WSW
SJ-12 4.0 05:25:43 10° N 05:29:47 54° WNW 05:33:49 10° SSW
SKYMED 2 3.9 05:26:37 10° S 05:30:45 43° W 05:31:28 40° WNW
Cosmos 1500 Rocket 4.5 05:26:56 10° S 05:31:15 51° E 05:35:37 10° NNE
MOS 1-B Rocket 4.3 05:25:43 10° SSW 05:31:22 38° W 05:33:51 26° NW
CZ-2C R/B 3.8 05:26:54 10° NNE 05:31:41 52° E 05:36:39 10° S
Cosmos 2180 Rocket 4.4 05:27:17 10° NNW 05:33:23 62° W 05:39:23 10° S
Cosmos 2278 Rocket 4.2 05:33:39 12° NNW 05:33:39 12° NNW 05:35:38 10° N
Cosmos 783 Rocket 4.5 05:31:02 27° NW 05:33:47 59° WSW 05:38:52 10° S
CENTAUR R/B 3.3 05:31:36 29° WNW 05:34:11 40° NNW 05:41:19 10° NE
FALCON 9 DEB 3.3 05:37:32 41° N 05:37:32 41° N 05:40:19 10° ENE
CZ-4B R/B 3.6 05:36:09 10° NNE 05:39:38 48° E 05:43:07 10° S
Cosmos 1503 Rocket 4.0 05:34:39 10° SW 05:39:54 62° WNW 05:45:14 10° NNE
FALCON 9 DEB 3.2 05:40:01 41° N 05:40:08 42° N 05:42:52 10° E
FALCON 9 DEB 3.2 05:40:11 42° N 05:40:20 43° N 05:43:04 10° E
ATLAS 5 CENTAUR R/B 2.4 05:36:48 10° SSW 05:40:30 47° SE 05:44:41 10° NE
Meteor 1-27 Rocket 3.7 05:35:00 10° NNW 05:40:40 82° W 05:46:25 10° S
Cosmos 1151 Rocket 4.4 05:42:26 21° WSW 05:42:26 21° WSW 05:44:35 10° SW
Meteor PRIRODA 4.0 05:40:54 10° NNE 05:44:30 64° ESE 05:48:06 10° S
H-2A R/B 2.4 05:40:15 10° SSE 05:44:31 68° ENE 05:48:55 10° N
Cosmos 1777 Rocket 4.1 05:42:03 10° SSW 05:47:15 78° ESE 05:52:31 10° NNE
USA 32 4.3 05:42:48 10° N 05:48:04 72° E 05:53:18 10° SSE
Cosmos 773 Rocket 4.2 05:45:01 21° NW 05:48:17 50° WSW 05:53:16 10° S
Lacrosse 4 Rocket 3.6 05:46:48 10° NNW 05:50:09 20° NE 05:53:31 10° E
Cosmos 1515 3.8 05:49:12 10° N 05:53:02 78° E 05:56:50 10° SSE
Cosmos 1340 Rocket 2.8 05:51:42 10° S 05:55:40 84° E 05:59:41 10° NNE
SL-27 R/B 3.2 05:54:53 30° WNW 05:55:43 34° WSW 05:58:56 10° S
Okean 3 Rocket 4.3 05:52:14 10° SW 05:56:20 33° WNW 06:00:28 10° N
Cosmos 1766 Rocket 4.4 05:55:35 10° SW 05:59:15 27° WNW 06:02:57 10° NNW
Envisat 3.5 05:57:48 10° N 06:02:24 35° WNW 06:06:58 10° SW
NOSS 3-2 (C) 4.2 06:00:16 19° WNW 06:03:54 35° NNW 06:10:15 10° NE
ATLAS 3B R/B 3.1 05:57:31 10° SSW 06:04:00 67° SE 06:10:50 10° NE
DMSP B5D2-2 4.1 05:58:53 10° S 06:04:00 59° W 06:09:10 10° NNW
FALCON 9 DEB 3.3 06:03:14 28° NW 06:04:20 43° N 06:07:08 10° E
Cosmos 158 Rocket 3.9 06:04:34 10° NNW 06:09:41 70° WSW 06:14:54 10° SSE
Meteor 1-25 Rocket 4.4 06:05:06 10° S 06:10:41 76° E 06:16:16 10° NNE
Cosmos 1939 Rocket 2.8 06:09:31 10° NNE 06:13:28 86° ESE 06:17:20 10° SSW
Cosmos 2297 Rocket 2.6 06:08:13 10° NNW 06:13:51 62° ENE 06:19:27 10° SE
PSLV R/B 4.4 06:10:40 10° SSE 06:14:41 62° ENE 06:18:46 10° N
FALCON 9 DEB 3.6 06:13:35 20° WNW 06:15:37 47° N 06:18:56 10° ENE
Cosmos 1174 3.0 06:14:26 10° SW 06:17:24 74° NW 06:20:39 10° NE
H-2A R/B 4.2 06:14:57 10° NNW 06:21:57 - WSW 06:17:12 17° WNW
Meteor 1-31 Rocket 3.9 06:15:15 10° NNW 06:18:21 23° WNW 06:21:29 10° WSW
COSMO-SKYMED 1 4.1 06:16:33 10° SW 06:19:13 16° W 06:20:04 15° WNW
Cosmos 2369 Rocket 3.2 06:16:09 12° W 06:20:07 25° NW 06:24:44 10° NNE
Cosmos 1607 3.9 06:17:00 11° NW 06:23:01 75° SW 06:29:09 10° SSE
Cosmos 1656 Rocket 4.5 06:20:39 10° WSW 06:25:16 28° NW 06:29:57 10° NNE
CZ-4B R/B 1.2 06:22:20 10° SSE 06:25:39 83° WSW 06:28:55 10° NNW
SL-4 R/B 4.4 06:23:52 10° SSW 06:26:41 22° SE 06:29:39 10° E
USA 215 3.9 06:22:06 10° SSE 06:28:12 41° SW 06:34:11 11° WNW
Okean 1 3.2 06:24:45 10° NNW 06:28:43 76° W 06:32:39 10° S
Cosmos 1408 Rocket 4.5 06:28:04 10° SW 06:31:40 26° WNW 06:35:18 10° NNW
CZ-2D R/B 3.6 06:29:06 10° NNE 06:32:54 67° ESE 06:36:40 10° S
CZ-2C R/B 4.1 06:31:56 10° SW 06:35:13 16° W 06:38:28 10° NW
Cosmos 2263 Rocket 4.1 06:31:19 10° N 06:35:34 21° NE 06:39:49 10° E
Meteor 1-18 Rocket 4.3 06:30:10 10° NNW 06:36:04 87° W 06:41:48 10° S
NOAA 12 4.2 06:32:20 10° N 06:37:31 57° WNW 06:42:37 10° SSW
Cosmos 1943 Rocket 3.9 06:35:57 10° NW 06:38:36 14° NNW 06:41:22 10° N
Nadezhda 4 Rocket 4.4 06:33:06 10° SW 06:38:52 40° WNW 06:44:45 10° N
FengYun 1-2 T 4.2 06:33:29 10° N 06:38:58 70° WNW 06:44:24 10° SSW
Cosmos 2228 Rocket 3.6 06:37:01 10° NNW 06:41:14 41° W 06:45:29 10° SSW
Cosmos 1743 Rocket 4.1 06:37:21 10° SW 06:41:22 35° WNW 06:45:25 10° N
Cosmos 724 4.4 06:36:28 10° NW 06:42:26 80° NE 06:48:14 10° SE
Alouette 2 Rocket 4.3 06:41:56 10° NW 06:45:01 24° W 06:47:57 10° SSW
CORIOLIS 4.2 06:39:33 10° NNE 06:45:02 83° WNW 06:50:29 10° SSW
Lacrosse 5 4.4 06:41:56 10° S 06:46:11 27° SE 06:50:27 10° ENE
Meteor 2-4 Rocket 4.0 06:40:28 10° NNW 06:46:28 85° E 06:52:19 10° SSE
Cosmos 1378 3.9 06:44:48 10° N 06:48:29 54° ENE 06:52:08 10° SSE
Cosmos 2227 Rocket 2.4 06:44:01 10° NNW 06:49:43 80° ENE 06:55:22 10° SSE
SJ 16-02 2.1 06:47:35 10° WSW 06:51:29 31° WNW 06:55:24 10° N
ADEOS 4.4 06:47:23 10° N 06:51:48 28° WNW 06:56:12 10° WSW
Cosmos 1666 Rocket 3.7 06:48:01 10° S 06:52:29 89° ESE 06:57:01 10° N
Cosmos 1092 Rocket 4.3 06:50:23 10° SSW 06:56:26 49° WNW 07:02:35 10° N
